| time (UTC) | temp F | wind direction | speed knots | gust knots | rain 1hr in | rain 24hr in | rain mn in | humidity % | barometer mb |
| 20260505161600 | 77 | 24 | 1.7 | 5.2 | 0.00 | 0.00 | 0.00 | 81 | 1006.9 |
| 20260505153104 | 78 | 358 | 0.9 | 2.6 | 0.00 | 0.00 | 0.00 | 72 | 1006.4 |
| 20260505151554 | 80 | 3 | 0.9 | 2.6 | 0.00 | 0.00 | 0.00 | 71 | 1006.3 |
| 20260505124546 | 87 | 352 | 0.0 | 3.5 | 0.00 | 0.00 | 0.00 | 54 | 1006.5 |
| 20260505123053 | 87 | 20 | 0.9 | 3.5 | 0.00 | 0.00 | 0.00 | 55 | 1006.6 |
| 20260505121542 | 87 | 206 | 0.9 | 3.5 | 0.00 | 0.00 | 0.00 | 55 | 1006.7 |
| 20260505120052 | 86 | 327 | 0.0 | 6.1 | 0.00 | 0.00 | 0.00 | 57 | 1006.8 |
| 20260505114539 | 87 | 15 | 2.6 | 8.7 | 0.00 | 0.00 | 0.00 | 58 | 1006.9 |
| 20260505113036 | 87 | 193 | 0.0 | 2.6 | 0.00 | 0.00 | 0.00 | 57 | 1007.2 |
| 20260505111535 | 87 | 98 | 0.9 | 2.6 | 0.00 | 0.00 | 0.00 | 57 | 1007.6 |
| 20260505101521 | 84 | 340 | 0.0 | 7.8 | 0.00 | 0.00 | 0.00 | 61 | 1008.8 |
| 20260505100022 | 83 | 17 | 1.7 | 6.1 | 0.00 | 0.00 | 0.00 | 63 | 1009.2 |
| 20260505094517 | 82 | 6 | 2.6 | 7.0 | 0.00 | 0.00 | 0.00 | 65 | 1009.7 |
| 20260505093010 | 82 | 16 | 0.0 | 7.0 | 0.00 | 0.00 | 0.00 | 67 | 1009.9 |
| 20260505091510 | 81 | 6 | 0.0 | 3.5 | 0.00 | 0.00 | 0.00 | 68 | 1010.3 |
| 20260505090002 | 81 | 17 | 2.6 | 7.0 | 0.00 | 0.00 | 0.00 | 68 | 1010.8 |
| 20260505084615 | 80 | 82 | 0.0 | 2.6 | 0.00 | 0.00 | 0.00 | 66 | 1011.3 |
| 20260505083107 | 79 | 352 | 0.0 | 2.6 | 0.00 | 0.00 | 0.00 | 70 | 1011.3 |
| 20260505081559 | 78 | 243 | 0.9 | 3.5 | 0.00 | 0.00 | 0.00 | 72 | 1011.6 |
| 20260505080057 | 76 | 190 | 0.9 | 5.2 | 0.00 | 0.00 | 0.00 | 73 | 1011.7 |
| 20260505074542 | 76 | 219 | 2.6 | 5.2 | 0.00 | 0.00 | 0.00 | 73 | 1012.1 |
| 20260505073050 | 75 | 194 | 0.0 | 1.7 | 0.00 | 0.00 | 0.00 | 77 | 1012.0 |
| 20260505071544 | 73 | 236 | 0.0 | 2.6 | 0.00 | 0.00 | 0.00 | 79 | 1012.4 |
| 20260505070039 | 71 | 196 | 1.7 | 5.2 | 0.00 | 0.00 | 0.00 | 84 | 1012.4 |
| 20260505064525 | 70 | 193 | 2.6 | 7.0 | 0.00 | 0.00 | 0.00 | 87 | 1012.3 |
| 20260505063027 | 68 | 185 | 2.6 | 6.1 | 0.00 | 0.00 | 0.00 | 89 | 1012.3 |
| 20260505061526 | 68 | 179 | 2.6 | 6.1 | 0.00 | 0.00 | 0.00 | 92 | 1012.3 |
| 20260505060024 | 66 | 152 | 2.6 | 4.3 | 0.00 | 0.00 | 0.00 | 95 | 1012.2 |
| 20260505054513 | 65 | 172 | 1.7 | 2.6 | 0.00 | 0.00 | 0.00 | 97 | 1012.2 |
| 20260505053010 | 64 | 154 | 0.0 | 0.0 | 0.00 | 0.00 | 0.00 | 98 | 1012.3 |
| 20260505051511 | 63 | 170 | 0.0 | 0.0 | 0.00 | 0.00 | 0.00 | 97 | 1012.2 |
| 20260505041605 | 62 | 157 | 0.0 | 0.0 | 0.00 | 0.00 | 0.00 | 97 | 1012.0 |
| 20260505040059 | 62 | 157 | 0.0 | 0.0 | 0.00 | 0.00 | 0.00 | 97 | 1011.9 |
| 20260505034558 | 62 | 157 | 0.0 | 0.0 | 0.00 | 0.00 | 0.00 | 96 | 1012.0 |
| 20260505033057 | 62 | 157 | 0.0 | 0.0 | 0.00 | 0.00 | 0.00 | 96 | 1011.9 |
| 20260505031555 | 62 | 157 | 0.0 | 0.0 | 0.00 | 0.00 | 0.00 | 96 | 1011.8 |
| 20260505030111 | 62 | 157 | 0.0 | 0.0 | 0.00 | 0.00 | 0.00 | 96 | 1011.7 |
| 20260505024559 | 63 | 107 | 0.0 | 0.0 | 0.00 | 0.00 | 0.00 | 96 | 1011.7 |
| 20260505023054 | 62 | 107 | 0.0 | 0.0 | 0.00 | 0.00 | 0.00 | 96 | 1011.7 |
| 20260505021552 | 63 | 107 | 0.0 | 0.0 | 0.00 | 0.00 | 0.00 | 96 | 1011.5 |
| 20260505020051 | 63 | 107 | 0.0 | 0.0 | 0.00 | 0.00 | 0.00 | 96 | 1011.5 |
| 20260505014606 | 63 | 107 | 0.0 | 0.0 | 0.00 | 0.00 | 0.00 | 96 | 1011.5 |
| 20260505013052 | 63 | 107 | 0.0 | 0.0 | 0.00 | 0.00 | 0.00 | 96 | 1011.8 |
| 20260505011547 | 63 | 107 | 0.0 | 0.0 | 0.00 | 0.00 | 0.00 | 96 | 1011.9 |
| 20260505010054 | 63 | 107 | 0.0 | 1.7 | 0.00 | 0.00 | 0.00 | 95 | 1011.9 |
| 20260505004550 | 63 | 107 | 0.0 | 0.9 | 0.00 | 0.00 | 0.00 | 95 | 1012.0 |
| 20260505003054 | 64 | 179 | 0.0 | 1.7 | 0.00 | 0.00 | 0.00 | 95 | 1012.0 |
| 20260505001542 | 64 | 179 | 0.0 | 0.9 | 0.00 | 0.00 | 0.00 | 95 | 1012.3 |
| 20260505000038 | 64 | 179 | 0.0 | 0.0 | 0.00 | 0.00 | 0.00 | 95 | 1012.5 |
| 20260504234536 | 64 | 179 | 0.0 | 2.6 | 0.00 | 0.00 | 0.00 | 94 | 1012.6 |
| 20260504233037 | 65 | 202 | 0.0 | 1.7 | 0.00 | 0.00 | 0.00 | 94 | 1012.6 |
| 20260504231533 | 65 | 202 | 0.0 | 0.0 | 0.00 | 0.00 | 0.00 | 94 | 1012.5 |
| 20260504230030 | 65 | 202 | 0.0 | 0.0 | 0.00 | 0.00 | 0.00 | 94 | 1012.6 |
| 20260504224528 | 66 | 202 | 0.0 | 0.9 | 0.00 | 0.01 | 0.00 | 93 | 1012.8 |
| 20260504223032 | 66 | 202 | 0.0 | 0.0 | 0.00 | 0.01 | 0.00 | 93 | 1013.0 |
| 20260504221524 | 66 | 202 | 0.0 | 0.9 | 0.00 | 0.01 | 0.00 | 93 | 1013.2 |
| 20260504220023 | 67 | 202 | 0.0 | 1.7 | 0.00 | 0.01 | 0.00 | 92 | 1013.3 |
| 20260504214523 | 67 | 182 | 0.0 | 0.0 | 0.00 | 0.01 | 0.00 | 92 | 1013.4 |
| 20260504213026 | 67 | 182 | 0.0 | 2.6 | 0.00 | 0.01 | 0.00 | 92 | 1013.6 |
| 20260504211532 | 67 | 183 | 2.6 | 5.2 | 0.00 | 0.01 | 0.00 | 91 | 1013.7 |
| 20260504210019 | 67 | 181 | 1.7 | 3.5 | 0.00 | 0.01 | 0.00 | 92 | 1013.7 |
| 20260504204519 | 68 | 163 | 0.0 | 0.9 | 0.00 | 0.05 | 0.00 | 90 | 1013.7 |
| 20260504203016 | 68 | 92 | 0.0 | 1.7 | 0.00 | 0.05 | 0.00 | 90 | 1013.6 |
| 20260504194523 | 70 | 122 | 0.0 | 0.9 | 0.00 | 0.05 | 0.00 | 87 | 1013.8 |
| 20260504184622 | 74 | 144 | 0.0 | 1.7 | 0.00 | 0.06 | 0.00 | 80 | 1013.8 |
| 20260504183009 | 74 | 54 | 0.9 | 4.3 | 0.00 | 0.06 | 0.00 | 75 | 1013.7 |
| 20260504181605 | 75 | 4 | 1.7 | 3.5 | 0.00 | 0.06 | 0.00 | 75 | 1013.9 |
| 20260504180005 | 74 | 41 | 1.7 | 3.5 | 0.00 | 0.06 | 0.00 | 79 | 1013.8 |
| 20260504174502 | 74 | 35 | 0.9 | 2.6 | 0.00 | 0.06 | 0.00 | 80 | 1013.6 |
| 20260504173001 | 75 | 344 | 0.0 | 1.7 | 0.00 | 0.06 | 0.00 | 78 | 1013.6 |
| 20260504171501 | 76 | 28 | 0.0 | 2.6 | 0.00 | 0.06 | 0.00 | 75 | 1013.5 |